Flag for U.S.A. Weather past 2 weeks in Mesquite, Texas, U.S.A.

Now
82 °F

Scattered clouds.


Feels Like: 87 °F
Forecast: 78 / 91 °F
Wind: No wind

Location: Mesquite Metro Airport

Current Time: Jul 28, 2014 at 10:09:18 AM

Latest Report: Jul 28, 2014 at 8:50 AM


Visibility: 10 mi

Pressure: 30.11 "Hg

Humidity: 70%

Dew point: 72 °F

Location of MesquiteLocation

Historic Weather in Mesquite — Graph

°F

Mesquite temperature yesterday

Maximum temperature yesterday: 100 °F (at 4:50 PM)
Minimum temperature yesterday: 73 °F (at 6:50 AM)
Average temperature yesterday: 85 °F

Past Weeks' High & Low Weather Summary

 TemperatureHumidityPressure
High100 °F (Jul 27, 4:50 PM)100% (Jul 17, 12:50 PM)30.14 "Hg (Jul 17, 12:50 PM)
Low63 °F (Jul 20, 6:50 AM)24% (Jul 15, 4:50 PM)29.88 "Hg (Jul 16, 7:50 PM)
Average77 °F74%30.00 "Hg
* Reported Jul 13 8:50 AM — Jul 28 8:50 AM, Mesquite, Weather by CustomWeather, © 2014

Note: Actual official high and low records may vary slightly from our data, if they occured in-between our weather recording intervals... More about our weather records

Advertising

Mesquite weather history for previous 24 hours

 ConditionsComfort  
Time TempWeatherWind HumidityBarometerVisibility
8:50 AM
Jul 28
82 °FScattered clouds.No wind70%30.11 "Hg10 mi
7:50 AM79 °FSunny.No wind84%30.09 "Hg10 mi
6:50 AM75 °FPassing clouds.No wind89%30.08 "Hg10 mi
5:35 AM75 °FClear.No wind87%30.06 "Hg10 mi
5:15 AM76 °FClear.No wind86%30.05 "Hg10 mi
4:55 AM75 °FClear.No wind88%30.05 "Hg10 mi
4:35 AM76 °FClear.5 mph86%30.04 "Hg10 mi
4:15 AM75 °FClear.3 mph89%30.04 "Hg10 mi
3:55 AM75 °FClear.5 mph88%30.04 "Hg10 mi
3:35 AM76 °FClear.3 mph86%30.03 "Hg10 mi
3:15 AM76 °FClear.No wind86%30.03 "Hg10 mi
2:55 AM77 °FClear.3 mph83%30.03 "Hg10 mi
2:15 AM78 °FClear.No wind81%30.02 "Hg10 mi
1:55 AM77 °FClear.No wind83%30.02 "Hg10 mi
1:15 AM78 °FClear.No wind79%30.02 "Hg10 mi
12:55 AM79 °FClear.3 mph77%30.02 "Hg10 mi
12:35 AM80 °FClear.3 mph76%30.02 "Hg10 mi
12:15 AM80 °FClear.5 mph75%30.02 "Hg10 mi
11:55 PM
Jul 27
80 °FClear.6 mph73%30.02 "Hg10 mi
11:35 PM82 °FClear.6 mph68%30.02 "Hg10 mi
11:15 PM84 °FClear.6 mph63%30.02 "Hg10 mi
10:55 PM84 °FClear.7 mph62%30.01 "Hg10 mi
10:35 PM85 °FClear.6 mph60%30.01 "Hg10 mi
10:15 PM86 °FClear.7 mph58%30.01 "Hg10 mi
9:55 PM87 °FClear.6 mph55%30.00 "Hg10 mi
7:47 PM93 °FSunny.8 mph39%29.97 "Hg10 mi
6:50 PM97 °FSunny.8 mph32%29.97 "Hg10 mi
5:50 PM99 °FSunny.6 mph31%29.97 "Hg10 mi
4:50 PM100 °FSunny.7 mph29%29.97 "Hg10 mi
3:47 PM99 °FSunny.9 mph31%29.98 "Hg10 mi
2:55 PM99 °FSunny.6 mph33%29.99 "Hg10 mi
1:50 PM97 °FSunny.10 mph34%30.01 "Hg10 mi
12:50 PM95 °FSunny.7 mph36%30.02 "Hg10 mi
11:55 AM93 °FSunny.9 mph39%30.04 "Hg10 mi
10:50 AM88 °FSunny.9 mph55%30.05 "Hg10 mi
Weather by CustomWeather, © 2014

See weather overviewHow to use our weather pages